Stanton, MN

8:55 PM CST on December 07, 2019 (GMT -0600)
Stanton

Weather History for KSYN - October, 2019

Change the Weather History Date:

Friday, October 18, 2019

  Actual Average (WUND) Record (WUND)
Temperature  
Mean Temperature 59 °F -  
Max Temperature 69 °F - - (-1)
Min Temperature 49 °F - - (-1)
Degree Days  
Heating Degree Days 6    
Growing Degree Days 9 (Base 50)    
Moisture  
Dew Point 42 °F    
Average Humidity 50    
Maximum Humidity 69    
Minimum Humidity 34    
Precipitation  
Precipitation 0.00 in - - ()
Sea Level Pressure  
Sea Level Pressure 29.62 in    
Wind  
Wind Speed 14 mph ()    
Max Wind Speed 23 mph    
Max Gust Speed 34 mph    
Visibility 10.0 miles    
Events      
Averages and records for this station are not official NWS values.
T = Trace of Precipitation, MM = Missing Value Source: Averaged Metar Reports

Daily Weather History Graph

Daily Weather History Graph

Search for Another Location

Airport or City:

Astronomy

Oct. 18, 2019 Rise Set
Actual Time 7:30 AM CDT 6:22 PM CDT
Civil Twilight 7:01 AM CDT 6:52 PM CDT
Nautical Twilight 6:27 AM CDT 7:26 PM CDT
Astronomical Twilight 5:53 AM CDT 7:59 PM CDT
Moon 9:30 PM CDT (10/18) 12:13 PM CDT (10/18)
Length of Visible Light 11h 51m
Length of Day
10h 52m
Waning Gibbous, 78% of the Moon is Illuminated
Oct 18
Waning Gibbous
Oct 21
Last Quarter
Oct 27
New
Nov 4
First Quarter
Nov 12
Full

Hourly Weather History & Observations

Time (CDT) Temp. Dew Point Humidity Pressure Visibility Wind Dir Wind Speed Gust Speed Precip Events Conditions
8:55 AM - - N/A% 29.75 in 10.0 mi SE 12.7 mph 19.6 mph N/A   Clear
8:56 AM - - N/A% 29.75 in 10.0 mi SE 13.8 mph 19.6 mph N/A   Clear
9:15 AM 49.1 °F 39.4 °F 69% 29.75 in 10.0 mi SE 12.7 mph 19.6 mph N/A   Clear
9:16 AM 49.3 °F 39.6 °F 69% 29.75 in 10.0 mi SE 9.2 mph 19.6 mph N/A   Clear
9:35 AM 50.4 °F 40.1 °F 68% 29.75 in 10.0 mi SE 12.7 mph 16.1 mph N/A   Clear
9:36 AM 50.5 °F 40.1 °F 67% 29.75 in 10.0 mi SE 12.7 mph 18.4 mph N/A   Clear
9:55 AM 51.4 °F 40.5 °F 66% 29.74 in 10.0 mi SE 10.4 mph 18.4 mph N/A   Clear
10:15 AM 52.9 °F 41.0 °F 64% 29.74 in 10.0 mi SSE 11.5 mph 19.6 mph N/A   Clear
10:16 AM 53.1 °F 41.0 °F 64% 29.74 in 10.0 mi SSE 12.7 mph 18.4 mph N/A   Clear
10:35 AM 54.0 °F 41.2 °F 62% 29.73 in 10.0 mi SSE 13.8 mph 25.3 mph N/A   Clear
10:55 AM 54.1 °F 41.5 °F 62% 29.71 in 10.0 mi SSE 12.7 mph 25.3 mph N/A   Clear
10:56 AM 54.3 °F 41.7 °F 62% 29.71 in 10.0 mi SE 11.5 mph 25.3 mph N/A   Clear
11:15 AM 54.9 °F 41.9 °F 62% 29.70 in 10.0 mi SSE 11.5 mph 26.5 mph N/A   Clear
11:35 AM 55.6 °F 42.1 °F 60% 29.68 in 10.0 mi SE 15.0 mph 20.7 mph N/A   Clear
11:55 AM 57.2 °F 42.4 °F 58% 29.67 in 10.0 mi SE 12.7 mph 23.0 mph N/A   Clear
12:15 PM 59.5 °F 42.4 °F 53% 29.67 in 10.0 mi SSE 19.6 mph 26.5 mph N/A   Clear
12:35 PM 60.8 °F 42.3 °F 50% 29.66 in 10.0 mi SSE 15.0 mph 23.0 mph N/A   Clear
12:36 PM 60.6 °F 42.3 °F 51% 29.66 in 10.0 mi SSE 12.7 mph 23.0 mph N/A   Clear
12:55 PM 61.7 °F 42.1 °F 49% 29.65 in 10.0 mi SSE 16.1 mph 21.9 mph N/A   Clear
1:15 PM 64.6 °F 40.6 °F 42% 29.64 in 10.0 mi South 21.9 mph 29.9 mph N/A   Clear
1:16 PM 64.9 °F 40.5 °F 41% 29.64 in 10.0 mi SSE 20.7 mph 29.9 mph N/A   Clear
1:35 PM 66.0 °F 40.8 °F 40% 29.63 in 10.0 mi SSE 15.0 mph 27.6 mph N/A   Clear
1:55 PM 66.6 °F 39.9 °F 38% 29.62 in 10.0 mi SSE 13.8 mph 25.3 mph N/A   Clear
1:56 PM 66.6 °F 40.1 °F 38% 29.62 in 10.0 mi SSE 15.0 mph 25.3 mph N/A   Clear
2:15 PM 67.3 °F 39.9 °F 37% 29.61 in 10.0 mi SSE 17.3 mph 26.5 mph N/A   Clear
2:16 PM 67.3 °F 39.7 °F 36% 29.61 in 10.0 mi South 18.4 mph 26.5 mph N/A   Clear
2:35 PM 67.8 °F 39.2 °F 35% 29.60 in 10.0 mi SSE 17.3 mph 29.9 mph N/A   Clear
2:56 PM 68.0 °F 39.9 °F 36% 29.59 in 10.0 mi SSE 17.3 mph 25.3 mph N/A   Clear
3:17 PM 68.9 °F 40.8 °F 36% 29.59 in 10.0 mi SSE 17.3 mph 25.3 mph N/A   Clear
3:35 PM 69.3 °F 41.2 °F 36% 29.58 in 10.0 mi SE 13.8 mph 28.8 mph N/A   Clear
3:36 PM 69.3 °F 41.2 °F 36% 29.58 in 10.0 mi SE 15.0 mph 28.8 mph N/A   Clear
3:55 PM 69.4 °F 40.8 °F 35% 29.57 in 10.0 mi SSE 15.0 mph 23.0 mph N/A   Clear
4:15 PM 69.4 °F 39.7 °F 34% 29.56 in 10.0 mi SSE 21.9 mph 34.5 mph N/A   Clear
4:35 PM 69.4 °F 40.3 °F 35% 29.55 in 10.0 mi SSE 20.7 mph 27.6 mph N/A   Clear
4:55 PM 69.1 °F 41.0 °F 36% 29.55 in 10.0 mi SSE 17.3 mph 31.1 mph N/A   Clear
4:56 PM 69.1 °F 41.0 °F 36% 29.55 in 10.0 mi SSE 18.4 mph 31.1 mph N/A   Clear
5:15 PM 68.2 °F 41.7 °F 38% 29.54 in 10.0 mi SSE 17.3 mph 31.1 mph N/A   Clear
5:35 PM 67.1 °F 42.1 °F 40% 29.54 in 10.0 mi SSE 18.4 mph 31.1 mph N/A   Clear
5:55 PM 65.7 °F 42.8 °F 43% 29.56 in 10.0 mi SSE 15.0 mph 25.3 mph N/A   Clear
5:56 PM 65.5 °F 42.8 °F 44% 29.56 in 10.0 mi SSE 18.4 mph 25.3 mph N/A   Clear
6:15 PM 64.9 °F 43.0 °F 45% 29.57 in 10.0 mi SSE 17.3 mph 24.2 mph N/A   Clear
6:16 PM 64.8 °F 43.0 °F 45% 29.57 in 10.0 mi SSE 16.1 mph 24.2 mph N/A   Clear
6:35 PM 63.9 °F 43.2 °F 47% 29.58 in 10.0 mi SSE 13.8 mph - N/A   Clear
6:36 PM 63.9 °F 43.2 °F 47% 29.58 in 10.0 mi SSE 11.5 mph - N/A   Clear
6:55 PM 63.3 °F 42.8 °F 47% 29.58 in 10.0 mi SSE 15.0 mph 19.6 mph N/A   Clear
6:56 PM 63.3 °F 42.8 °F 47% 29.58 in 10.0 mi SSE 13.8 mph 19.6 mph N/A   Clear
7:15 PM 63.0 °F 42.1 °F 46% 29.59 in 10.0 mi SSE 13.8 mph 19.6 mph N/A   Mostly Cloudy
7:16 PM 63.0 °F 42.1 °F 46% 29.59 in 10.0 mi SSE 13.8 mph 19.6 mph N/A   Mostly Cloudy
7:35 PM 62.4 °F 42.3 °F 48% 29.59 in 10.0 mi SSE 11.5 mph 19.6 mph N/A   Overcast
7:55 PM 62.6 °F 41.9 °F 47% 29.59 in 10.0 mi SSE 13.8 mph 23.0 mph N/A   Overcast
8:15 PM 62.6 °F 42.1 °F 47% 29.59 in 10.0 mi SSE 15.0 mph 26.5 mph N/A   Overcast
8:35 PM 62.1 °F 42.4 °F 49% 29.59 in 10.0 mi SSE 18.4 mph 29.9 mph N/A   Overcast
8:36 PM 62.1 °F 42.4 °F 49% 29.59 in 10.0 mi SSE 19.6 mph 29.9 mph N/A   Overcast
8:55 PM 61.7 °F 42.8 °F 50% 29.59 in 10.0 mi SSE 18.4 mph 26.5 mph N/A   Overcast
9:15 PM 61.3 °F 42.8 °F 51% 29.59 in 10.0 mi South 20.7 mph 26.5 mph N/A   Overcast
9:35 PM 61.0 °F 43.3 °F 52% 29.60 in 10.0 mi SSE 19.6 mph 29.9 mph N/A   Overcast
9:55 PM 60.3 °F 43.9 °F 55% 29.60 in 10.0 mi SSE 19.6 mph 26.5 mph N/A   Overcast
10:15 PM 59.9 °F 44.2 °F 56% 29.60 in 10.0 mi South 19.6 mph 28.8 mph N/A   Mostly Cloudy
10:16 PM 59.9 °F 44.2 °F 56% 29.60 in 10.0 mi South 18.4 mph 28.8 mph N/A   Mostly Cloudy
10:35 PM 59.4 °F 44.6 °F 58% 29.60 in 10.0 mi South 18.4 mph 32.2 mph N/A   Scattered Clouds
10:55 PM 59.0 °F 44.6 °F 59% 29.59 in 10.0 mi South 23.0 mph 32.2 mph N/A   Clear
10:56 PM 59.0 °F 44.6 °F 59% 29.60 in 10.0 mi South 19.6 mph 32.2 mph N/A   Clear
11:15 PM 58.5 °F 44.6 °F 60% 29.59 in 10.0 mi South 20.7 mph 33.4 mph N/A   Clear
11:35 PM 58.1 °F 44.6 °F 61% 29.59 in 10.0 mi South 19.6 mph 28.8 mph N/A   Clear
11:36 PM 57.9 °F 44.6 °F 61% 29.59 in 10.0 mi South 17.3 mph 28.8 mph N/A   Clear
11:55 PM 57.2 °F 44.6 °F 63% 29.59 in 10.0 mi South 16.1 mph 25.3 mph N/A   Clear